EW6903 Weather Reports


Display with metric or nautical units.
time (UTC)temp
F
wind
direction
speed
MPH
gust
MPH
rain 1hr
in
rain 24hr
in
rain mn
in
humidity
%
barometer
mb
20260505021556 67 193 0.0 0.0 0.00 0.00 0.00 73 1014.2
20260505020107 67 193 0.0 0.0 0.00 0.00 0.00 73 1014.1
20260505014556 67 193 0.0 0.0 0.00 0.00 0.00 72 1014.0
20260505013055 68 193 0.0 0.0 0.00 0.00 0.00 71 1013.9
20260505011559 69 193 0.0 0.0 0.00 0.00 0.00 68 1013.9
20260505010109 69 193 0.0 0.0 0.00 0.00 0.00 66 1014.0
20260505004605 70 195 0.0 0.0 0.00 0.00 0.00 64 1014.3
20260505003057 71 188 0.0 0.0 0.00 0.00 0.00 63 1014.3
20260505001551 72 186 1.0 0.0 0.00 0.00 0.00 61 1014.4
20260504234548 73 178 0.0 0.0 0.00 0.00 0.00 59 1014.5
20260504233049 74 181 2.0 0.0 0.00 0.00 0.00 57 1014.5
20260504231617 74 192 2.0 0.0 0.00 0.00 0.00 56 1014.8
20260504230045 75 169 1.0 0.0 0.00 0.00 0.00 54 1014.8
20260504224545 76 218 1.0 0.0 0.00 0.00 0.00 52 1015.0
20260504223046 76 178 1.0 0.0 0.00 0.00 0.00 51 1015.1
20260504221623 77 192 3.0 0.0 0.00 0.00 0.00 50 1015.2
20260504220041 77 172 2.0 0.0 0.00 0.00 0.00 49 1015.3
20260504214541 77 229 3.0 0.0 0.00 0.00 0.00 47 1015.1
20260504213044 78 177 1.0 0.0 0.00 0.00 0.00 46 1015.1
20260504211538 78 180 2.0 0.0 0.00 0.00 0.00 46 1015.4
20260504210045 79 241 1.0 0.0 0.00 0.00 0.00 43 1015.4
20260504204537 78 180 2.0 0.0 0.00 0.00 0.00 42 1015.6
20260504203035 78 234 3.0 0.0 0.00 0.00 0.00 41 1015.8
20260504201532 78 165 2.0 0.0 0.00 0.00 0.00 42 1016.0
20260504200029 78 189 3.0 0.0 0.00 0.00 0.00 41 1016.5
20260504194533 79 233 2.0 0.0 0.00 0.00 0.00 41 1016.8
20260504193027 79 185 3.0 0.0 0.00 0.00 0.00 44 1016.9
20260504191539 79 188 3.0 0.0 0.00 0.00 0.00 44 1017.0
20260504190025 79 218 3.0 0.0 0.00 0.00 0.00 44 1017.0
20260504184539 78 132 2.0 0.0 0.00 0.00 0.00 45 1017.1
20260504183021 79 201 2.0 0.0 0.00 0.00 0.00 42 1017.4
20260504181520 79 196 3.0 0.0 0.00 0.00 0.00 43 1017.6
20260504180020 79 184 2.0 0.0 0.00 0.00 0.00 47 1017.7
20260504174518 78 221 2.0 0.0 0.00 0.00 0.00 48 1017.5
20260504173017 79 180 2.0 0.0 0.00 0.00 0.00 49 1017.7
20260504171516 78 176 2.0 0.0 0.00 0.00 0.00 49 1017.7
20260504140104 71 50 1.0 0.0 0.00 0.00 0.00 69 1018.6
20260504081515 53 37 0.0 0.0 0.00 0.00 0.00 89 1018.0
20260504060107 56 37 0.0 0.0 0.00 0.00 0.00 85 1019.0
20260504044549 58 37 0.0 0.0 0.00 0.00 0.00 81 1019.6
20260504043050 59 37 0.0 0.0 0.00 0.00 0.00 79 1019.6
20260504041549 60 37 0.0 0.0 0.00 0.00 0.00 78 1019.7
20260504040048 60 37 0.0 0.0 0.00 0.00 0.00 78 1019.7
20260504034555 61 37 0.0 0.0 0.00 0.00 0.00 76 1019.7
20260504033056 61 37 0.0 0.0 0.00 0.00 0.00 76 1019.7
20260504031601 62 37 0.0 0.0 0.00 0.00 0.00 76 1019.8
20260504030109 62 37 0.0 0.0 0.00 0.00 0.00 75 1019.8
20260504024550 63 37 0.0 0.0 0.00 0.00 0.00 72 1019.9
20260504023046 64 37 0.0 0.0 0.00 0.00 0.00 69 1019.6